Regional Weather Roundup
Issued by NWS Albany, NY

Current Version | Previous Version | Graphics & Text | Print | Product List | Glossary Off
Versions: 1 2 3 4 5 6 7 8 9 10 11 12 13 14 15 16 17 18 19 20 21 22 23 24 25 26 27

000
ASUS41 KALY 191410
RWRALY

NEW YORK STATE HOURLY WEATHER ROUNDUP
NATIONAL WEATHER SERVICE ALBANY NY
1000 AM EDT THU OCT 19 2017

NOTE: "FAIR" INDICATES FEW OR NO CLOUDS BELOW 12,000 FEET WITH NO
SIGNIFICANT WEATHER AND/OR NO OBSTRUCTIONS TO VISIBILITY.

NYZ032-033-038>043-046>054-057>066-NYZ062>081-082-084-191500-
EAST


CITY           SKY/WX    TMP DP  RH WIND       PRES   REMARKS
ALBANY         MOSUNNY   57  46  66 S12       30.17F
GLENS FALLS    SUNNY     56  46  69 S12       30.15F
POUGHKEEPSIE   SUNNY     58  48  69 S3        30.21F
NEWBURGH       SUNNY     57  50  77 W6        30.23F
MONTGOMERY     SUNNY     56  49  77 SW7       30.21F
WHITE PLAINS   MOSUNNY   61  46  57 SW5       30.23F
ISLIP          MOSUNNY   64  52  64 SW10      30.26R
NEW YORK CITY  MOSUNNY   63  45  51 SW8       30.24F
CENTRAL PARK   SUNNY     61  45  55 CALM      30.27F
$$

NYZ005>009-017-018-044>046-055-056-191500-
CENTRAL


CITY           SKY/WX    TMP DP  RH WIND       PRES   REMARKS
FULTON           N/A    N/A N/A N/A MISG      30.07F
SYRACUSE       MOSUNNY   63  44  50 S15G21    30.10F
ROME           SUNNY     58  46  64 E6        30.13F
ELMIRA         SUNNY     54  47  77 CALM      30.14F
BINGHAMTON     SUNNY     55  41  59 SW8       30.16S
MONTICELLO     SUNNY     52  45  77 E3        30.22F
$$

NYZ026>034-041>043-087-191500-
NORTH


CITY           SKY/WX    TMP DP  RH WIND       PRES   REMARKS
WATERTOWN      SUNNY     62  44  51 S15G25    30.02F
FORT DRUM      NOT AVBL
OGDENSBURG     FAIR      64  45  50 S16G24    29.98F
MASSENA        SUNNY     64  45  49 SW21G30   29.98F
SARANAC LAKE   SUNNY     58  42  55 SW15G23   30.05F
PLATTSBURGH    SUNNY     59  50  72 SE9       30.03F
$$

NYZ001>004-010>016-019>021-085-191500-
WEST


CITY           SKY/WX    TMP DP  RH WIND       PRES   REMARKS
NIAGARA FALLS  PTSUNNY   63  49  60 SW20G30   30.05S
BUFFALO        PTSUNNY   61  45  55 SW23      30.06F
DUNKIRK        MOSUNNY   59  45  59 S17       30.09F
JAMESTOWN      MOSUNNY   55  44  66 S13       30.14F
WELLSVILLE     SUNNY     58  41  53 SW9G21    30.16F
ROCHESTER      MOSUNNY   60  44  55 SW13      30.07S
PENN YAN       SUNNY     59  40  49 S10       30.12
$$

             KEY
       WCI = WIND CHILL INDEX
       VSB = VISIBILITY
       HX  = HEAT INDEX
$$




USA.gov is the U.S. government's official web portal to all federal, state and local government web resources and services.